Regional Weather Roundup
Issued by NWS Green Bay, WI

Home | Current Version | Previous Version | Graphics & Text | Print | Product List | Glossary Off
Versions: 1 2 3 4 5 6 7 8 9 10 11 12 13 14 15 16 17 18 19 20 21 22 23 24 25 26 27 28 29 30 31 32 33 34 35 36 37 38 39 40 41 42 43 44 45 46 47 48 49 50

000
ASUS43 KGRB 191759
RWRGRB

NORTH-CENTRAL AND NORTHEAST WISCONSIN REGIONAL WEATHER ROUNDUP
NATIONAL WEATHER SERVICE GREEN BAY WI
100 PM CDT FRI SEP 19 2014

WIZ005-009-010>012-018-019-191900-
NORTH CENTRAL WISCONSIN

CITY           SKY/WX    TMP DP  RH WIND       PRES   REMARKS
IRONWOOD       CLOUDY    63  52  67 S21G31    29.67F
MANITOWISH WTR NOT AVBL
ARBOR VITAE    NOT AVBL
EAGLE RIVER    NOT AVBL
LAND O LAKES   NOT AVBL
RHINELANDER    CLOUDY    64  50  60 S14G26    29.92F
PHILLIPS       NOT AVBL
ANTIGO         NOT AVBL
TOMAHAWK       NOT AVBL
MERRILL        NOT AVBL
$$

WIZ013-073-191900-
NORTHEAST WISCONSIN

CITY           SKY/WX    TMP DP  RH WIND       PRES   REMARKS
IRON MOUNTAIN  PTSUNNY   61  51  70 S17G24    29.94F
MARINETTE      MOSUNNY   68  54  60 S16G29    29.98F
$$

WIZ017-030-035>037-045-191900-
CENTRAL WISCONSIN

CITY           SKY/WX    TMP DP  RH WIND       PRES   REMARKS
MEDFORD        NOT AVBL
WAUSAU         PTSUNNY   67  51  56 S21G31    29.93F
MOSINEE        SUNNY     66  54  63 S20G26    29.96F
MARSHFIELD     MOSUNNY   70  54  56 S22G30    29.92F
WISC RAPIDS    MOSUNNY   71  51  49 S12G29    29.96F
STEVENS POINT  NOT AVBL
WAUPACA        NOT AVBL
SHAWANO        PTSUNNY   71  53  52 S7G18     29.98F
CLINTONVILLE   PTSUNNY   70  52  52 S17G25    29.98F
$$

WIZ038-039-048-051-191900-
FOX VALLEY

CITY           SKY/WX    TMP DP  RH WIND       PRES   REMARKS
NWS GREEN BAY  MOSUNNY   70  52  52 S18G28    30.01F
APPLETON       MOSUNNY   70  48  46 SW20G28   30.02F
OSHKOSH        MOSUNNY   72  54  53 S20       30.01F
FOND DU LAC    MOSUNNY   71  51  49 S17G29    30.03F
$$

WIZ022-050-052-191900-
EAST CENTRAL WISCONSIN

CITY           SKY/WX    TMP DP  RH WIND       PRES   REMARKS
STURGEON BAY   MOSUNNY   64  57  77 S21G30    30.02F
MANITOWOC      NOT AVBL
SHEBOYGAN      SUNNY     70  56  61 S14       30.06F
$$

LMZ563-521-522-541>543-191900-
LAKESHORE

STATION/POSITION TIME  TEMP    WIND        PRES    VSBY  WAVE
                       AIR SEA DIR/SP/G                  HT/PER
                 (UTC) (F)     (DEG/KT/KT) (MB)    (MI)  (FT/S)
SHEBOYGAN LKSHOR 1700   59 51  180/ 19/ 21 1019.2F
KEWAUNEE LKSHORE 1700   58     170/ 17/ 20 1017.0F
NORTHPORT PIER   1700   60     150/ 14/ 20 1017.6F
N MID LAKE BUOY  1700   57 58  200/ 21/ 25 1018.4F         5/ 6
S GREEN BAY BUOY 1700   63     VRB 10/ 12  1017.5F
SISTER BAY LKSHO 1700   65     200/ 22/ 27   N/A
CHAMBERS ISLAND  1700   63     150/ 11/ 17 1017.3F
MENOMINEE LKSHOR 1700   65     190/ 12/ 16 1016.8F
$$



USA.gov is the U.S. government's official web portal to all federal, state and local government web resources and services.